{"data":{"norad_id":59724,"intl_designator":"2024-088S","name":"STARLINK-31836","alt_names":[],"object_type":"PAYLOAD","status":"ACTIVE","operator":null,"country":"US","launch_date":"2024-05-10","launch_site_code":"AFWTR","launch_vehicle":null,"mission":null,"orbit_class":"UNKNOWN","rcs_meters":null,"size_class":null,"mass_kg":null,"dimensions":null,"purposes":["comms"],"wikipedia_slug":null,"has_3d_model":false,"image_url":null,"decayed_at":null,"tle_current":{"epoch":"2026-09-21T10:36:43.732512Z","epoch_age_seconds":89983,"freshness":"FRESH","line1":"1 59724U 24088S   26264.44217283  .00000381  00000+0  24025-4 0  9998","line2":"2 59724  53.1622 309.1793 0001234  95.1888 264.9254 15.31703958133673","mean_motion":15.31703958,"eccentricity":0.0001234,"inclination_deg":53.1622,"raan_deg":309.1793,"arg_perigee_deg":95.1888,"mean_anomaly_deg":264.9254,"bstar":2.4025e-5,"rev_number":13367,"period_min":94.012945026287,"perigee_km":469.88304669375,"apogee_km":471.57334662428,"semimajor_km":6848.865196659,"source":"CELESTRAK","updated_at":"2026-09-22T09:00:49.060741Z"}}}